This is the latest recevied weather packets stored in our database for station/object GCEMA. If no packets are shown the sender has not sent any weather packets the latest 10 day(s).
| Time | Temp. | Humidity | Pressure | Rain* | Wind** | Luminosity | Snow |
|---|---|---|---|---|---|---|---|
| 1777486376 | 16.67° C | - | 1010.5 hPa | 0 mm | 0 m/s | - | - |
| 1777486194 | 17.22° C | - | 1010.6 hPa | 0 mm | 0 m/s | - | - |
| 1777486016 | 17.22° C | - | 1010.6 hPa | 0 mm | 0 m/s | - | - |
| 1777485835 | 17.78° C | - | 1010.6 hPa | 0 mm | 0 m/s | - | - |
| 1777485655 | 17.22° C | - | 1010.5 hPa | 0 mm | 0 m/s | - | - |
| 1777485295 | 17.22° C | - | 1010.5 hPa | 0 mm | 0 m/s | - | - |
| 1777484934 | 17.22° C | - | 1010.5 hPa | 0 mm | 0 m/s | - | - |
| 1777484575 | 16.67° C | - | 1010.5 hPa | 0 mm | 0 m/s | - | - |
| 1777484393 | 17.78° C | - | 1010.5 hPa | 0 mm | 0 m/s | - | - |
| 1777484214 | 17.78° C | - | 1010.6 hPa | 0 mm | 0 m/s | - | - |
| 1777484034 | 17.22° C | - | 1010.6 hPa | 0 mm | 0 m/s | - | - |
| 1777483674 | 16.67° C | - | 1010.8 hPa | 0 mm | 0 m/s | - | - |
| 1777483492 | 17.22° C | - | 1010.6 hPa | 0 mm | 0 m/s | - | - |
| 1777483312 | 17.22° C | - | 1010.6 hPa | 0 mm | 0 m/s | - | - |
| 1777483131 | 17.22° C | - | 1010.6 hPa | 0 mm | 0 m/s | - | - |
| 1777482951 | 16.67° C | - | 1010.6 hPa | 0 mm | 0 m/s | - | - |
| 1777482772 | 17.22° C | - | 1010.6 hPa | 0 mm | 0 m/s | - | - |
| 1777482589 | 16.67° C | - | 1010.6 hPa | 0 mm | 0 m/s | - | - |
| 1777482410 | 16.67° C | - | 1010.6 hPa | 0 mm | 0 m/s | - | - |
| 1777482230 | 17.22° C | - | 1010.6 hPa | 0 mm | 0 m/s | - | - |
| 1777482051 | 17.22° C | - | 1010.6 hPa | 0 mm | 0 m/s | - | - |
| 1777481871 | 17.22° C | - | 1010.6 hPa | 0 mm | 0 m/s | - | - |
| 1777481689 | 16.67° C | - | 1010.5 hPa | 0 mm | 0 m/s | - | - |
| 1777481509 | 17.22° C | - | 1010.5 hPa | 0 mm | 0 m/s | - | - |
| 1777481150 | 17.22° C | - | 1010.3 hPa | 0 mm | 0 m/s | - | - |
* Rain latest hour (hover to see other rain measurements)
** Current wind speed in m/s (hover to see current wind gust speed)